Weather History for Beale AFB, CA

Change the Weather History Date:

Monday, November 26, 2012

  Actual Average Record
Temperature  
Mean Temperature 52 °F -  
Max Temperature 63 °F 58 °F 77 °F (2002)
Min Temperature 40 °F 42 °F 30 °F (2010)
Degree Days  
Heating Degree Days 14    
Growing Degree Days 2 (Base 50)    
Moisture  
Dew Point 43 °F    
Average Humidity 78    
Maximum Humidity 100    
Minimum Humidity 49    
Precipitation  
Precipitation 0.00 in - - ()
Sea Level Pressure  
Sea Level Pressure 30.04 in    
Wind  
Wind Speed 2 mph (NNE)    
Max Wind Speed 5 mph    
Max Gust Speed -    
Visibility 10 miles    
Events      
Averages and records for this station are not official NWS values.
T = Trace of Precipitation, MM = Missing Value Source: NWS Daily Summary

Daily Weather History Graph

Daily Weather History Graph

Search for Another Location

Airport:

Trip Planner

Search our weather history database for the weather conditions in past years. The results will help you decide how hot, cold, wet, or windy it might be!

Date:

Astronomy

Nov. 26, 2012 Rise Set
Actual Time 7:01 AM PST 4:44 PM PST
Civil Twilight 6:32 AM PST 5:14 PM PST
Nautical Twilight 5:59 AM PST 5:47 PM PST
Astronomical Twilight 5:27 AM PST 6:19 PM PST
Moon 3:40 PM PST (11/26) 5:17 AM PST (11/26)
Length of Visible Light 10h 41m
Length of Day
9h 43m
Waxing Gibbous, 97% of the Moon is Illuminated
Nov 26
Waxing Gibbous
Nov 28
Full
Dec 6
Last Quarter
Dec 13
New
Dec 19
First Quarter

Hourly Weather History & Observations

Time (PST) Temp. Windchill Dew Point Humidity Pressure Visibility Wind Dir Wind Speed Gust Speed Precip Events Conditions
12:58 AM 44.1 °F - 41.4 °F 90% 29.97 in 10.0 mi East 2.3 mph - N/A   Clear
1:58 AM 43.3 °F - 41.0 °F 91% 29.98 in 10.0 mi Calm Calm - N/A   Clear
2:58 AM 43.0 °F - 40.8 °F 92% 30.00 in 10.0 mi Calm Calm - N/A   Clear
3:58 AM 40.6 °F - 39.9 °F 97% 30.01 in 10.0 mi East 2.3 mph - N/A   Clear
4:58 AM 42.4 °F 40.7 °F 39.7 °F 90% 30.01 in 10.0 mi ENE 3.5 mph - N/A   Clear
5:58 AM 41.5 °F - 38.1 °F 88% 30.03 in 10.0 mi Calm Calm - N/A   Clear
6:58 AM 42.1 °F - 38.1 °F 86% 30.05 in 10.0 mi Calm Calm - N/A   Clear
7:58 AM 41.9 °F - 39.6 °F 91% 30.06 in 10.0 mi Calm Calm - N/A   Clear
8:58 AM 49.1 °F - 43.2 °F 80% 30.08 in 10.0 mi Calm Calm - N/A   Clear
9:58 AM 54.5 °F - 46.0 °F 73% 30.08 in 10.0 mi Calm Calm - N/A   Clear
10:55 AM 59.0 °F - 44.6 °F 59% 30.08 in 10.0 mi WSW 3.5 mph - N/A   Clear
11:55 AM 60.8 °F - 46.4 °F 59% 30.06 in 10.0 mi West 4.6 mph - N/A   Clear
12:59 PM 62.2 °F - 44.4 °F 52% 30.04 in 10.0 mi NW 3.5 mph - N/A   Scattered Clouds
1:55 PM 62.8 °F - 43.3 °F 49% 30.03 in 10.0 mi Calm Calm - N/A   Scattered Clouds
2:59 PM 63.1 °F - 44.6 °F 51% 30.02 in 10.0 mi Variable 2.3 mph - N/A   Scattered Clouds
3:55 PM 62.4 °F - 45.3 °F 54% 30.02 in 10.0 mi Calm Calm - N/A   Scattered Clouds
4:58 PM 58.5 °F - 45.1 °F 61% 30.02 in 10.0 mi Variable 3.5 mph - N/A   Partly Cloudy
5:55 PM 54.3 °F - 44.4 °F 69% 30.04 in 10.0 mi Calm Calm - N/A   Partly Cloudy
6:55 PM 49.3 °F - 44.4 °F 83% 30.04 in 10.0 mi Calm Calm - N/A   Scattered Clouds
7:59 PM 45.0 °F - 42.8 °F 92% 30.05 in 10.0 mi Calm Calm - N/A   Partly Cloudy
8:55 PM 48.2 °F - 44.6 °F 87% 30.06 in 10.0 mi North 2.3 mph - N/A   Clear
9:59 PM 42.8 °F - 42.8 °F 100% 30.08 in 10.0 mi WNW 2.3 mph - N/A   Clear
10:56 PM 46.4 °F 44.3 °F 44.6 °F 93% 30.09 in 10.0 mi ENE 4.6 mph - N/A   Clear
11:55 PM 46.4 °F 44.3 °F 42.8 °F 87% 30.08 in 10.0 mi NE 4.6 mph - N/A   Clear